Location: Squirrel Cove
(50.1074°N, 124.9139°W)
Time: 23:31:04
(UTC-08:00)

BlueWalker 3 - Pass Details

Date: 04 December 2022
Orbit: 499 x 517 km, 53.2° (Epoch: 29 January)

Event Time Altitude Azimuth Distance (km) Brightness Sun altitude
Rises 18:27:02 0° 288° (WNW) 2,632 6.6 -19.6°
Reaches altitude 10° 18:29:15 10° 291° (WNW) 1,740 5.5 -20.0°
Maximum altitude 18:33:10 66° 14° (NNE) 560 1.9 -20.6°
Enters shadow 18:33:23 65° 36° (NE) 566 1.9 -20.6°
